This demonstration page uses our WeatherBlox Daily Observations layout. Learn more.

41.55636, -103.73856

Hourly Observations for August 20, 2019

Temp ( °F °C ) Dew Point ( °F °C ) Humidity (%) Winds ( mph kmh ) Pressure ( in mb ) Visibility ( mi km ) Precip ( " mm )
1:58 am 01:58 Partly Cloudy 65 18.6 64 17.6 94 94 S 6 9 29.88 1012 10 16.09344 0 0
2:58 am 02:58 Mostly Cloudy 65 18.2 64 17.7 97 97 S 5 7 29.88 1012 8 12.874752 0 0
3:58 am 03:58 Mostly Clear 62 16.9 61 15.9 94 94 W 7 11 29.88 1012 8 12.874752 0 0
4:58 am 04:58 Mostly Cloudy 63 17.3 61 16.1 93 93 W 8 13 29.88 1012 9 14.484096 0 0
5:58 am 05:58 Partly Cloudy 62 16.9 60 15.4 91 91 N 6 9 29.88 1012 10 16.09344 0 0
6:58 am 06:58 Sunny 61 16.2 59 14.9 92 92 Calm 29.91 1013 10 16.09344 0 0
7:58 am 07:58 Mostly Cloudy 70 21.3 64 17.9 81 81 Calm 29.94 1014 10 16.09344 0 0
8:58 am 08:58 Mostly Cloudy 74 23.1 67 19.4 80 80 ENE 6 9 29.94 1014 10 16.09344 0 0
9:58 am 09:58 Mostly Cloudy 81 27.2 64 17.5 55 55 ENE 7 11 29.94 1014 10 16.09344 0 0
10:58 am 10:58 Mostly Cloudy 82 28 67 19.4 60 60 NE 9 15 29.94 1014 10 16.09344 0 0
11:58 am 11:58 Mostly Cloudy 83 28.5 63 17.2 50 50 ENE 12 19 29.94 1014 10 16.09344 0 0
12:58 pm 12:58 Partly Cloudy 85 29.6 67 19.2 54 54 E 14 22 29.94 1014 10 16.09344 0 0
1:58 pm 13:58 Mostly Sunny 89 31.5 62 16.6 41 41 ESE 13 20 29.94 1014 10 16.09344 0 0
2:58 pm 14:58 Mostly Sunny 87 30.5 63 17.4 45 45 ESE 14 22 29.94 1014 10 16.09344 0 0
3:58 pm 15:58 Sunny 87 30.8 63 17.4 45 45 ESE 16 26 29.91 1013 10 16.09344 0 0
5:58 pm 17:58 Mostly Cloudy 80 26.7 63 17.1 56 56 ESE 15 24 29.97 1015 10 16.09344 0 0
6:58 pm 18:58 Mostly Cloudy 78 25.4 62 16.8 59 59 ESE 14 22 29.94 1014 10 16.09344 0 0
7:58 pm 19:58 Mostly Cloudy 76 24.2 63 17.1 65 65 ESE 13 20 29.94 1014 10 16.09344 0 0
8:58 pm 20:58 Mostly Cloudy 74 23.2 62 16.6 67 67 SE 14 22 29.97 1015 10 16.09344 0 0
9:58 pm 21:58 Mostly Cloudy with Nearby Thunderstorms 73 22.6 65 18.6 78 78 ESE 14 22 29.97 1015 10 16.09344 0 0
10:58 pm 22:58 Mostly Cloudy 72 22 67 19.4 85 85 E 12 19 29.97 1015 10 16.09344 0 0
11:58 pm 23:58 Cloudy with Heavy Thunderstorms 55 12.9 55 12.6 98 98 N 25 41 30.06 1018 5 8.04672 0.39 9.906

Powered by AerisWeather